Total_Precipitation_Accumulation
3.11 3.45 3.36 3.43 3.13 3.29 3.63 3.94 3.99 4.21 4.50 4.36 3.85 3.62 3.75 3.64 3.32 3.11 3.27 3.49 3.60 3.61 4.07 4.39 4.05 3.73 3.59 3.24 2.93 2.76 2.61 2.52 2.33 2.08 1.91 1.81 1.69 1.51 1.39 1.43 1.32 1.21 1.12
3.36 3.69 3.59 3.47 3.10 3.11 3.48 3.82 3.86 4.20 4.34 4.40 3.87 3.52 3.55 3.49 3.16 2.87 2.94 3.43 3.51 3.44 3.73 4.17 4.31 4.22 4.03 3.68 3.30 2.98 2.73 2.58 2.48 2.29 2.02 1.84 1.74 1.63 1.62 1.52 1.41 1.37 1.26
3.60 3.94 3.88 3.42 3.13 3.24 3.47 3.46 3.61 4.11 4.03 3.96 3.84 3.70 3.60 3.41 3.08 2.99 2.94 3.15 3.04 3.22 3.54 3.71 4.03 4.35 4.45 4.32 4.06 3.64 3.28 2.84 2.56 2.35 2.08 1.86 1.75 1.61 1.60 1.59 1.51 1.45 1.36
3.23 3.67 3.44 2.98 3.01 3.19 3.44 3.52 3.48 3.85 3.99 4.00 4.04 3.85 3.65 3.43 3.02 2.92 2.93 2.93 2.94 2.71 3.04 3.40 3.81 4.16 4.59 4.88 4.96 4.82 4.37 3.61 2.99 2.64 2.30 2.06 1.88 1.67 1.49 1.45 1.51 1.52 1.38
2.32 2.76 2.76 2.67 2.67 2.97 3.08 2.74 3.00 3.32 3.54 3.72 3.43 3.36 3.01 2.80 2.73 2.52 2.50 2.43 2.66 2.81 2.97 3.03 3.42 3.76 4.42 5.30 5.88 5.84 5.37 4.47 3.62 3.15 2.81 2.52 2.34 2.02 1.66 1.47 1.48 1.47 1.39
2.14 2.44 2.48 2.32 2.29 2.57 2.74 2.88 3.17 3.21 3.07 3.14 2.70 2.74 2.73 2.49 2.48 2.45 2.27 2.27 2.38 2.35 2.65 2.98 3.27 3.06 3.62 4.65 5.47 5.74 5.66 5.21 4.36 3.68 3.33 3.15 3.03 2.64 2.08 1.79 1.69 1.56 1.47
2.32 2.64 2.43 2.49 2.35 2.41 2.51 2.58 2.80 2.90 2.68 2.86 3.21 3.05 2.71 2.44 2.38 2.31 2.24 2.32 2.33 2.44 2.66 3.06 3.26 3.31 3.20 3.24 3.75 4.57 5.27 5.59 5.35 4.64 4.00 3.61 3.47 3.05 2.46 2.22 1.99 1.83 1.78
2.24 2.19 2.44 2.31 2.27 2.53 2.49 2.57 2.79 2.75 2.47 2.65 3.15 3.39 3.17 3.12 2.56 1.91 2.11 2.23 2.27 2.53 2.59 2.58 2.82 3.34 3.37 3.55 2.93 3.31 4.53 5.33 5.88 5.89 5.20 4.37 3.93 3.45 2.88 2.64 2.39 2.18 2.04
1.89 2.01 2.08 2.09 2.27 2.24 2.46 2.59 2.67 2.86 2.82 2.56 2.58 3.07 3.10 3.10 2.81 2.20 1.89 2.00 2.29 2.61 2.61 2.63 2.62 2.96 3.26 3.67 3.52 3.04 3.37 4.00 5.09 6.12 6.24 5.38 4.33 3.55 3.17 3.05 2.95 2.70 2.45
1.87 1.92 1.98 2.17 2.27 2.16 2.52 2.23 2.37 2.75 2.92 2.63 2.61 2.53 2.58 2.79 2.88 2.70 2.28 1.95 2.13 2.27 2.42 2.40 2.53 2.86 3.13 3.37 3.43 2.83 2.50 2.78 3.79 5.08 6.01 6.04 5.19 4.16 3.58 3.58 3.79 3.62 3.23
1.97 1.79 2.01 2.33 2.42 2.27 2.33 2.41 2.72 2.68 2.66 2.63 2.59 2.51 2.62 2.69 2.51 2.57 2.55 2.35 2.15 1.80 1.94 2.25 2.50 2.66 2.83 3.10 3.38 3.02 2.81 2.61 2.73 3.34 4.11 4.89 5.33 5.00 4.55 4.44 4.72 4.91 4.69
2.01 1.92 2.09 2.39 2.42 2.48 2.45 2.40 2.48 2.54 2.66 2.74 2.64 2.44 2.52 2.62 2.63 2.74 2.49 2.41 2.41 2.05 2.09 2.35 2.48 2.63 2.61 2.77 2.77 2.74 2.68 2.63 2.58 2.57 2.83 3.32 4.02 4.61 4.84 5.01 5.34 5.69 5.82
1.82 1.95 2.07 2.33 2.36 2.38 2.30 2.50 2.52 2.50 2.61 2.60 2.54 2.51 2.41 2.32 2.46 2.62 2.64 2.44 2.39 2.25 2.44 2.38 2.39 2.47 2.43 2.69 2.86 2.83 2.40 2.41 2.29 2.24 2.32 2.56 2.90 3.53 4.21 4.62 5.03 5.56 5.90
1.53 1.66 1.83 1.90 2.00 2.04 2.01 2.53 2.44 2.50 2.61 2.46 2.28 2.67 2.55 2.23 2.38 2.50 2.74 3.01 2.81 2.64 2.69 2.56 2.48 2.51 2.66 2.79 2.94 2.91 2.42 2.42 2.23 2.06 1.95 1.96 2.05 2.31 2.78 3.20 3.57 4.02 4.49
1.58 1.65 1.71 1.93 2.07 2.15 2.22 2.52 2.46 2.45 2.65 2.46 2.40 2.57 2.48 2.38 2.36 2.30 2.69 3.10 3.32 3.09 2.87 2.72 2.45 2.35 2.48 2.61 2.70 2.34 2.16 2.29 2.17 2.01 1.86 1.76 1.75 1.84 2.04 2.24 2.34 2.45 2.62
1.71 1.83 1.90 2.06 2.18 2.16 2.20 2.44 2.39 2.51 2.65 2.51 2.51 2.56 2.47 2.39 2.51 2.43 2.55 2.86 3.13 3.33 3.07 2.54 2.37 2.24 2.27 2.09 2.22 1.94 1.97 2.16 2.01 1.85 1.76 1.73 1.71 1.72 1.77 1.85 1.91 1.92 1.97
1.79 1.87 1.97 2.13 2.17 2.26 2.40 2.53 2.34 2.47 2.59 2.75 2.64 2.67 2.71 2.81 2.79 2.70 2.78 2.85 3.03 3.32 3.20 2.63 2.50 2.47 2.35 2.11 2.06 1.94 1.88 1.96 1.96 2.04 1.87 1.76 1.66 1.56 1.57 1.61 1.66 1.73 1.80
2.09 2.04 2.12 2.19 2.09 2.15 2.41 2.48 2.45 2.51 2.56 2.59 2.76 3.04 2.96 3.03 2.97 2.81 2.94 2.88 2.97 3.32 3.18 2.83 2.78 2.77 2.71 2.46 2.30 2.09 1.85 1.84 1.96 2.20 1.92 1.77 1.69 1.62 1.60 1.59 1.59 1.58 1.58
2.35 2.42 2.43 2.30 2.23 2.23 2.32 2.42 2.54 2.57 2.58 2.64 2.77 2.84 2.90 3.15 3.03 2.93 2.83 2.80 2.93 3.13 3.26 2.96 2.85 3.03 2.88 2.59 2.44 2.15 1.92 2.02 1.80 1.91 1.88 1.82 1.79 1.72 1.66 1.59 1.61 1.62 1.56
2.42 2.57 2.54 2.49 2.43 2.31 2.18 2.17 2.27 2.36 2.51 2.66 2.70 2.62 2.71 2.97 3.05 3.06 2.83 2.82 2.99 3.13 3.18 3.07 2.94 3.06 3.07 2.97 2.79 2.52 2.40 2.21 2.01 1.85 1.91 1.82 1.83 1.76 1.65 1.54 1.59 1.62 1.61
2.37 2.54 2.61 2.67 2.62 2.41 2.14 2.23 2.40 2.39 2.56 2.56 2.47 2.37 2.37 2.63 2.86 2.95 2.67 2.71 2.89 2.91 2.93 2.96 2.93 3.01 3.08 3.22 3.04 2.72 2.46 2.30 2.06 1.87 1.89 1.74 1.72 1.64 1.65 1.68 1.67 1.59 1.43
2.77 2.78 2.67 2.64 2.57 2.18 2.35 2.43 2.44 2.46 2.59 2.58 2.50 2.39 2.28 2.24 2.26 2.43 2.55 2.66 2.81 2.80 2.82 3.00 3.14 3.19 3.19 3.25 3.23 3.00 2.71 2.45 2.20 1.96 2.07 2.04 1.95 1.88 1.73 1.61 1.66 1.58 1.42
3.15 3.13 2.97 2.79 2.63 2.57 2.55 2.35 2.32 2.18 2.23 2.31 2.42 2.40 2.09 1.89 2.00 1.92 2.16 2.33 2.42 2.50 2.59 2.82 2.99 3.05 3.17 3.32 3.41 3.12 2.93 2.72 2.42 2.18 2.21 2.04 1.95 1.94 1.84 1.80 1.89 1.67 1.53
3.11 3.12 3.00 2.86 2.72 2.63 2.55 2.27 2.24 2.02 2.01 2.05 2.14 2.19 2.13 1.97 1.94 2.06 2.07 1.99 1.92 1.98 2.18 2.23 2.36 2.64 2.88 3.11 3.32 3.21 3.13 2.82 2.45 2.20 2.18 2.02 1.85 1.85 1.85 1.89 1.96 1.81 1.62
2.88 2.76 2.67 2.66 2.63 2.67 2.69 2.37 2.19 1.94 1.98 1.96 1.97 1.99 2.02 1.92 2.10 2.08 1.99 1.94 1.93 1.93 2.02 2.12 2.14 2.30 2.55 2.72 2.88 2.99 2.96 2.81 2.50 2.27 2.27 2.25 2.01 1.96 1.96 1.84 1.77 1.82 1.68
2.77 2.68 2.53 2.52 2.52 2.49 2.57 2.23 2.08 1.89 1.92 1.91 1.95 1.97 2.01 1.93 1.99 1.88 1.79 1.87 1.84 1.85 1.95 1.96 1.96 1.98 2.05 2.37 2.76 2.60 2.64 2.71 2.46 2.15 1.96 2.10 2.09 2.16 2.12 1.79 1.58 1.55 1.52